CW6617 Weather Reports


time (UTC)temp
C
wind
direction
speed
KPH
gust
KPH
rain 1hr
cm
rain 24hr
cm
rain mn
cm
humidity
%
barometer
mb
20260507151704 16 169 11.3 20.9 0.00 0.00 0.00 56 1015.2
20260507151203 16 155 3.2 12.9 0.00 0.00 0.00 52 1015.2
20260507150704 16 173 6.4 11.3 0.00 0.00 0.00 52 1015.1
20260507150204 16 82 0.0 9.7 0.00 0.00 0.00 51 1015.2
20260507144704 16 45 1.6 8.0 0.00 0.00 0.00 51 1015.2
20260507144204 16 161 3.2 11.3 0.00 0.00 0.00 51 1015.3
20260507143704 16 98 3.2 12.9 0.00 0.00 0.00 51 1015.3
20260507141204 16 116 4.8 12.9 0.00 0.00 0.00 51 1015.5
20260507140704 16 127 6.4 11.3 0.00 0.00 0.00 51 1015.5
20260507134704 15 105 3.2 12.9 0.00 0.00 0.00 51 1015.5
20260507134204 15 126 3.2 8.0 0.00 0.00 0.00 51 1015.5
20260507133703 15 103 1.6 8.0 0.00 0.00 0.00 51 1015.6
20260507133204 15 53 1.6 9.7 0.00 0.00 0.00 49 1015.5
20260507131704 16 15 3.2 8.0 0.00 0.00 0.00 49 1015.5
20260507131206 16 164 0.0 8.0 0.00 0.00 0.00 47 1015.6
20260507130203 16 166 3.2 11.3 0.00 0.00 0.00 47 1015.5
20260507124703 17 173 3.2 9.7 0.00 0.00 0.00 43 1015.6
20260507124203 17 200 3.2 9.7 0.00 0.00 0.00 45 1015.6
20260507123704 18 207 6.4 9.7 0.00 0.00 0.00 44 1015.6
20260507123204 17 185 4.8 11.3 0.00 0.00 0.00 47 1015.6
20260507121703 15 185 4.8 8.0 0.00 0.00 0.00 49 1015.7
20260507121204 15 149 1.6 3.2 0.00 0.00 0.00 48 1015.8
20260507120204 15 56 4.8 8.0 0.00 0.00 0.00 51 1015.8
20260507114704 14 312 3.2 9.7 0.00 0.00 0.00 51 1015.9
20260507113704 15 26 3.2 9.7 0.00 0.00 0.00 51 1015.9
20260507111704 15 71 1.6 4.8 0.00 0.00 0.00 52 1015.9
20260507111203 15 52 3.2 9.7 0.00 0.00 0.00 54 1016.0
20260507110704 15 65 8.0 12.9 0.00 0.00 0.00 52 1016.0
20260507110203 15 61 0.0 12.9 0.00 0.00 0.00 53 1016.1
20260507104704 16 45 3.2 9.7 0.00 0.00 0.00 52 1016.1
20260507103703 15 300 3.2 8.0 0.00 0.00 0.00 54 1016.1
20260507101204 16 311 3.2 9.7 0.00 0.00 0.00 56 1016.3
20260507100703 15 56 4.8 8.0 0.00 0.00 0.00 55 1016.2
20260507100204 16 155 8.0 12.9 0.00 0.00 0.00 58 1016.3
20260507094704 15 218 1.6 11.3 0.00 0.00 0.00 56 1016.3
20260507094204 15 189 8.0 11.3 0.00 0.00 0.00 60 1016.3
20260507093704 15 221 1.6 9.7 0.00 0.00 0.00 62 1016.2
20260507093204 15 172 1.6 9.7 0.00 0.00 0.00 62 1016.2
20260507091704 14 185 1.6 8.0 0.00 0.00 0.00 63 1016.3
20260507090703 14 187 8.0 11.3 0.00 0.00 0.00 68 1016.3
20260507090204 13 108 3.2 11.3 0.00 0.00 0.00 70 1016.3
20260507084704 13 159 1.6 8.0 0.00 0.00 0.00 76 1016.4
20260507084204 12 159 4.8 14.5 0.00 0.00 0.00 77 1016.4
20260507083704 12 155 4.8 14.5 0.00 0.00 0.00 80 1016.4
20260507083204 12 175 3.2 11.3 0.00 0.00 0.00 83 1016.3
20260507081704 10 171 3.2 11.3 0.00 0.00 0.00 89 1016.4
20260507081203 10 168 3.2 11.3 0.00 0.00 0.00 90 1016.4
20260507080704 10 173 6.4 11.3 0.00 0.00 0.00 92 1016.4
20260507080204 9 174 6.4 12.9 0.00 0.00 0.00 93 1016.3
20260507073704 8 165 4.8 9.7 0.00 0.00 0.00 95 1016.2
20260507073203 8 128 3.2 8.0 0.00 0.00 0.00 95 1016.3
20260507071704 7 105 1.6 8.0 0.00 0.00 0.00 95 1016.2
20260507071203 7 53 3.2 8.0 0.00 0.00 0.00 96 1016.2
20260507070704 6 16 3.2 8.0 0.00 0.00 0.00 95 1016.2
20260507070203 6 47 0.0 3.2 0.00 0.00 0.00 95 1016.2
20260507064703 5 45 0.0 0.0 0.00 0.00 0.00 94 1016.3
20260507064204 5 45 0.0 0.0 0.00 0.00 0.00 94 1016.2
20260507063704 5 45 0.0 0.0 0.00 0.00 0.00 94 1016.2
20260507063204 5 45 0.0 0.0 0.00 0.00 0.00 94 1016.2
20260507061203 3 46 0.0 0.0 0.00 0.00 0.00 93 1016.2
20260507060704 3 46 0.0 0.0 0.00 0.00 0.00 93 1016.1
20260507060203 3 46 0.0 0.0 0.00 0.00 0.00 93 1016.2
20260507054703 3 46 0.0 0.0 0.00 0.00 0.00 92 1016.1
20260507054204 2 46 0.0 0.0 0.00 0.00 0.00 92 1016.0
20260507053704 2 46 0.0 0.0 0.00 0.00 0.00 92 1016.0
20260507051704 2 46 0.0 0.0 0.00 0.00 0.00 91 1015.9
20260507051204 2 46 0.0 0.0 0.00 0.00 0.00 91 1015.8
20260507050204 2 46 0.0 0.0 0.00 0.00 0.00 91 1015.8
20260507044703 2 46 0.0 0.0 0.00 0.00 0.00 91 1015.7
20260507044204 2 46 0.0 0.0 0.00 0.00 0.00 91 1015.7
20260507043704 2 46 0.0 0.0 0.00 0.00 0.00 91 1015.7
20260507043204 3 46 0.0 0.0 0.00 0.00 0.00 91 1015.6
20260507041204 3 46 0.0 0.0 0.00 0.00 0.00 91 1015.7
20260507040704 3 46 0.0 0.0 0.00 0.00 0.00 91 1015.6
20260507040204 3 46 0.0 0.0 0.00 0.00 0.00 91 1015.6
20260507034704 3 46 0.0 0.0 0.00 0.00 0.00 91 1015.6
20260507034204 3 46 0.0 0.0 0.00 0.00 0.00 91 1015.6
20260507033703 3 46 0.0 0.0 0.00 0.00 0.00 90 1015.6
20260507033204 3 46 0.0 0.0 0.00 0.00 0.00 90 1015.6
20260507031704 3 46 0.0 0.0 0.00 0.00 0.00 91 1015.6
20260507031203 3 46 0.0 0.0 0.00 0.00 0.00 91 1015.6
20260507030703 3 46 0.0 0.0 0.00 0.00 0.00 90 1015.6
20260507030204 4 46 0.0 0.0 0.00 0.00 0.00 90 1015.6
20260507024703 4 46 0.0 0.0 0.00 0.00 0.00 90 1015.6
20260507023205 4 46 0.0 0.0 0.00 0.00 0.00 90 1015.5
20260507021704 4 46 0.0 0.0 0.00 0.00 0.00 89 1015.6
20260507021204 4 46 0.0 0.0 0.00 0.00 0.00 89 1015.6
20260507020703 4 46 0.0 0.0 0.00 0.00 0.00 89 1015.5
20260507014704 5 46 0.0 0.0 0.00 0.00 0.00 89 1015.2
20260507014204 5 46 0.0 0.0 0.00 0.00 0.00 89 1015.3
20260507013204 5 46 0.0 0.0 0.00 0.00 0.00 89 1015.3
20260507011704 5 46 0.0 0.0 0.00 0.00 0.00 89 1015.3
20260507010703 5 46 0.0 0.0 0.00 0.00 0.00 88 1015.3
20260507010204 5 46 0.0 0.0 0.00 0.00 0.00 88 1015.3
20260507004704 5 46 0.0 0.0 0.00 0.00 0.00 87 1015.3
20260507004203 5 46 0.0 0.0 0.00 0.00 0.00 87 1015.3
20260507003704 6 46 0.0 0.0 0.00 0.00 0.00 87 1015.3
20260507003204 6 46 0.0 0.0 0.00 0.00 0.00 87 1015.3
20260507001704 6 46 0.0 0.0 0.00 0.00 0.00 86 1015.4
20260507001203 6 46 0.0 0.0 0.00 0.00 0.00 86 1015.4
20260507000703 6 46 0.0 0.0 0.00 0.00 0.00 86 1015.4
20260507000205 6 46 0.0 0.0 0.00 0.00 0.00 85 1015.4
20260506234704 6 46 0.0 0.0 0.00 0.00 0.00 85 1015.4
20260506234204 6 46 0.0 0.0 0.00 0.00 0.00 85 1015.3
20260506233704 7 46 0.0 0.0 0.00 0.00 0.00 84 1015.2
20260506233204 7 46 0.0 0.0 0.00 0.00 0.00 84 1015.3
20260506231703 7 46 0.0 0.0 0.00 0.00 0.00 83 1015.2
20260506231204 7 46 0.0 0.0 0.00 0.00 0.00 83 1015.1
20260506230703 7 46 0.0 0.0 0.00 0.00 0.00 82 1015.1
20260506230205 7 46 0.0 0.0 0.00 0.00 0.00 82 1015.2
20260506224706 8 46 0.0 0.0 0.00 0.00 0.00 81 1015.2
20260506224204 8 46 0.0 0.0 0.00 0.00 0.00 81 1015.2
20260506223704 8 46 0.0 0.0 0.00 0.00 0.00 81 1015.1
20260506221704 8 46 0.0 0.0 0.00 0.00 0.00 79 1015.1
20260506221204 9 46 0.0 3.2 0.00 0.00 0.00 79 1015.1
20260506220704 9 51 0.0 1.6 0.00 0.00 0.00 78 1015.0
20260506220204 9 51 1.6 8.0 0.00 0.00 0.00 78 1014.9
20260506214704 10 46 0.0 3.2 0.00 0.00 0.00 76 1014.8
20260506214204 10 46 0.0 3.2 0.00 0.00 0.00 76 1014.9
20260506213704 10 47 1.6 4.8 0.00 0.00 0.00 75 1014.9
20260506213203 10 45 1.6 8.0 0.00 0.00 0.00 75 1014.9
20260506211703 10 57 1.6 3.2 0.00 0.00 0.00 74 1014.9
20260506211204 10 59 1.6 4.8 0.00 0.00 0.00 73 1014.9
20260506210204 10 58 1.6 8.0 0.00 0.00 0.00 72 1014.8
20260506204703 11 57 3.2 9.7 0.00 0.00 0.00 71 1014.7
20260506204204 11 37 3.2 11.3 0.00 0.00 0.00 71 1014.6
20260506203704 11 37 3.2 11.3 0.00 0.00 0.00 70 1014.7
20260506203204 11 69 1.6 11.3 0.00 0.00 0.00 69 1014.6
20260506201704 11 60 4.8 12.9 0.00 0.00 0.00 67 1014.4
20260506201204 11 5 1.6 9.7 0.00 0.00 0.00 66 1014.4
20260506200703 11 355 0.0 4.8 0.00 0.00 0.00 67 1014.4
20260506200204 11 61 1.6 11.3 0.00 0.00 0.00 67 1014.4
20260506194704 11 309 0.0 3.2 0.00 0.00 0.00 68 1014.0
20260506194204 11 313 1.6 4.8 0.00 0.00 0.00 68 1013.9
20260506191704 12 333 1.6 8.0 0.00 0.00 0.00 67 1013.7
20260506191204 12 302 1.6 4.8 0.00 0.00 0.00 67 1013.7
20260506190704 12 304 1.6 3.2 0.00 0.00 0.00 67 1013.7
20260506190204 12 304 3.2 8.0 0.00 0.00 0.00 66 1013.6
20260506184704 12 350 1.6 4.8 0.00 0.00 0.00 65 1013.6
20260506184203 12 353 1.6 8.0 0.00 0.00 0.00 66 1013.6
20260506183704 12 357 1.6 4.8 0.00 0.00 0.00 65 1013.5
20260506181704 12 20 4.8 9.7 0.00 0.00 0.00 64 1013.3
20260506181204 12 315 3.2 9.7 0.00 0.00 0.00 64 1013.3
20260506180704 12 337 3.2 9.7 0.00 0.00 0.00 63 1013.2
20260506180203 12 352 1.6 14.5 0.00 0.00 0.00 63 1013.2
20260506174704 12 304 6.4 14.5 0.00 0.00 0.00 63 1013.1
20260506174204 12 299 4.8 14.5 0.00 0.00 0.00 62 1013.1
20260506173704 12 12 6.4 14.5 0.00 0.00 0.00 62 1013.1
20260506173204 12 305 3.2 14.5 0.00 0.00 0.00 63 1013.0
20260506170703 13 25 3.2 8.0 0.00 0.00 0.00 63 1013.0
20260506170203 13 310 3.2 14.5 0.00 0.00 0.00 63 1013.0
20260506164704 13 73 3.2 12.9 0.00 0.00 0.00 61 1012.8
20260506164204 14 328 4.8 16.1 0.00 0.00 0.00 60 1012.9
20260506163204 14 50 4.8 19.3 0.00 0.00 0.00 58 1012.9
20260506161703 13 12 4.8 12.9 0.00 0.00 0.00 59 1012.9
20260506161204 13 53 9.7 16.1 0.00 0.00 0.00 58 1012.9
20260506160703 14 60 9.7 16.1 0.00 0.00 0.00 57 1012.9
20260506154703 14 56 9.7 20.9 0.00 0.00 0.00 58 1012.9
20260506154204 15 52 9.7 20.9 0.00 0.00 0.00 57 1012.8
20260506153204 15 308 6.4 16.1 0.00 0.00 0.00 60 1012.9